GW7044 Weather Reports


time (UTC)temp
F
wind
direction
speed
knots
gust
knots
rain 1hr
in
rain 24hr
in
rain mn
in
humidity
%
barometer
mb
20260507160533 58 201 4.3 8.7 0.00 0.00 0.00 44 1004.9
20260507160028 58 206 4.3 8.7 0.00 0.00 0.00 44 1005.1
20260507155620 58 215 2.6 8.7 0.00 0.00 0.00 48 1005.2
20260507155107 57 197 5.2 8.7 0.00 0.00 0.00 46 1005.3
20260507154546 58 219 2.6 8.7 0.00 0.00 0.00 45 1005.3
20260507154042 57 177 3.5 9.6 0.00 0.00 0.00 46 1005.2
20260507153528 57 208 3.5 9.6 0.00 0.00 0.00 47 1005.2
20260507153036 57 207 4.3 7.8 0.00 0.00 0.00 49 1005.3
20260507152605 56 214 2.6 8.7 0.00 0.00 0.00 49 1005.4
20260507152053 56 204 5.2 8.7 0.00 0.00 0.00 48 1005.3
20260507151628 56 206 5.2 11.3 0.00 0.00 0.00 48 1005.4
20260507151035 56 200 7.0 12.2 0.00 0.00 0.00 47 1005.3
20260507150524 57 207 5.2 9.6 0.00 0.00 0.00 52 1005.3
20260507150113 56 204 3.5 7.8 0.00 0.00 0.00 52 1005.4
20260507145610 56 178 3.5 7.8 0.00 0.00 0.00 51 1005.4
20260507145047 55 201 4.3 9.6 0.00 0.00 0.00 54 1005.4
20260507144606 55 201 4.3 7.0 0.00 0.00 0.00 54 1005.4
20260507144032 55 203 4.3 11.3 0.00 0.00 0.00 54 1005.3
20260507143525 55 208 4.3 11.3 0.00 0.00 0.00 54 1005.6
20260507143133 55 208 3.5 9.6 0.00 0.00 0.00 55 1005.5
20260507142600 55 202 2.6 6.1 0.00 0.00 0.00 56 1005.4
20260507142052 55 195 2.6 7.8 0.00 0.00 0.00 58 1005.6
20260507141610 54 211 2.6 7.0 0.00 0.00 0.00 55 1005.6
20260507141036 54 205 3.5 8.7 0.00 0.00 0.00 58 1005.6
20260507140526 53 190 5.2 8.7 0.00 0.00 0.00 60 1005.7
20260507140115 53 207 4.3 9.6 0.00 0.00 0.00 62 1005.6
20260507135606 52 200 5.2 11.3 0.00 0.00 0.00 63 1005.5
20260507135100 52 210 6.1 11.3 0.00 0.00 0.00 64 1005.5
20260507134545 53 184 4.3 7.8 0.00 0.00 0.00 67 1005.6
20260507134053 53 222 1.7 4.3 0.00 0.00 0.00 72 1005.6
20260507133523 52 210 3.5 7.8 0.00 0.00 0.00 70 1005.7
20260507133116 52 200 2.6 8.7 0.00 0.00 0.00 70 1005.6
20260507132605 52 206 2.6 7.0 0.00 0.00 0.00 73 1005.4
20260507132100 51 201 4.3 8.7 0.00 0.00 0.00 73 1005.4
20260507131544 51 212 5.2 10.4 0.00 0.00 0.00 73 1005.5
20260507131031 51 203 5.2 8.7 0.00 0.00 0.00 77 1005.6
20260507130519 50 201 4.3 7.0 0.00 0.00 0.00 79 1005.6
20260507130122 50 197 4.3 9.6 0.00 0.00 0.00 80 1005.8
20260507125603 50 197 6.1 9.6 0.00 0.00 0.00 79 1005.9
20260507125059 50 204 6.1 8.7 0.00 0.00 0.00 81 1005.9
20260507124547 50 212 4.3 7.8 0.00 0.00 0.00 83 1005.8
20260507124036 50 200 5.2 8.7 0.00 0.00 0.00 84 1005.8
20260507123531 49 209 4.3 7.8 0.00 0.00 0.00 86 1005.7
20260507123022 49 201 2.6 5.2 0.00 0.00 0.00 91 1005.4
20260507122516 48 203 2.6 4.3 0.00 0.00 0.00 90 1005.4
20260507122136 48 188 1.7 3.5 0.00 0.00 0.00 91 1005.4
20260507121611 48 174 1.7 3.5 0.00 0.00 0.00 91 1005.4
20260507121059 48 202 1.7 4.3 0.00 0.00 0.00 90 1005.5
20260507120549 48 204 2.6 5.2 0.00 0.00 0.00 90 1005.6
20260507120044 47 202 2.6 4.3 0.00 0.00 0.00 90 1005.5
20260507115556 47 195 1.7 4.3 0.00 0.00 0.00 90 1005.5
20260507115040 47 204 3.5 7.0 0.00 0.00 0.00 91 1005.5
20260507114633 47 209 4.3 7.0 0.00 0.00 0.00 91 1005.4
20260507114108 47 188 1.7 3.5 0.00 0.00 0.00 92 1005.3
20260507113558 47 202 2.6 7.0 0.00 0.00 0.00 92 1005.3
20260507113044 47 207 3.5 5.2 0.00 0.00 0.00 93 1005.2
20260507112540 47 210 2.6 4.3 0.00 0.00 0.00 94 1005.3
20260507112026 47 198 1.7 3.5 0.00 0.00 0.00 94 1005.1
20260507111619 47 196 1.7 3.5 0.00 0.00 0.00 94 1005.0
20260507111108 47 190 0.9 3.5 0.00 0.00 0.00 94 1004.8
20260507110619 47 212 2.6 4.3 0.00 0.00 0.00 94 1005.1
20260507110048 47 194 1.7 3.5 0.00 0.00 0.00 94 1005.1
20260507105543 47 210 1.7 3.5 0.00 0.00 0.00 94 1004.9
20260507105056 47 197 1.7 3.5 0.00 0.00 0.00 94 1005.0
20260507104531 47 204 2.6 5.2 0.00 0.00 0.00 95 1005.2
20260507104021 47 197 1.7 3.5 0.00 0.00 0.00 95 1005.1
20260507103516 48 182 1.7 3.5 0.00 0.00 0.00 95 1004.8
20260507103112 48 201 0.9 4.3 0.00 0.00 0.00 95 1004.7
20260507102600 48 192 0.9 3.5 0.00 0.00 0.00 95 1004.5
20260507102109 48 188 1.7 4.3 0.00 0.00 0.00 96 1004.7
20260507101548 48 205 2.6 4.3 0.00 0.00 0.00 96 1004.5
20260507101036 48 155 0.9 4.3 0.00 0.00 0.00 96 1004.1
20260507100526 48 184 1.7 4.3 0.00 0.00 0.00 96 1004.0
20260507100017 48 184 1.7 3.5 0.00 0.00 0.00 96 1004.1
20260507095613 48 193 2.6 4.3 0.00 0.00 0.00 96 1004.4
20260507095107 48 190 0.9 4.3 0.00 0.00 0.00 96 1004.1
20260507094558 48 199 0.9 3.5 0.00 0.00 0.00 96 1004.2
20260507094051 48 201 1.7 3.5 0.00 0.00 0.00 96 1004.4
20260507093536 49 194 1.7 3.5 0.00 0.00 0.00 96 1004.5
20260507093027 49 186 1.7 3.5 0.00 0.00 0.00 96 1004.4
20260507092517 49 187 1.7 3.5 0.00 0.00 0.00 96 1004.2
20260507092107 49 118 0.9 3.5 0.00 0.00 0.00 96 1004.1
20260507091604 49 197 2.6 4.3 0.00 0.00 0.00 96 1004.3
20260507091112 49 196 2.6 4.3 0.00 0.00 0.00 96 1004.2
20260507090600 49 148 1.7 5.2 0.00 0.00 0.00 96 1003.9
20260507090028 49 191 1.7 5.2 0.00 0.00 0.00 96 1004.0
20260507085524 49 67 2.6 5.2 0.00 0.00 0.00 96 1004.0
20260507085127 49 211 2.6 4.3 0.00 0.00 0.00 96 1004.2
20260507084556 49 194 1.7 5.2 0.00 0.00 0.00 96 1004.1
20260507084048 49 186 2.6 6.1 0.00 0.00 0.00 96 1004.0
20260507083537 49 195 2.6 8.7 0.00 0.00 0.00 96 1003.9
20260507083028 49 205 2.6 8.7 0.00 0.00 0.00 96 1003.7
20260507082639 49 204 2.6 4.3 0.00 0.00 0.00 96 1003.7
20260507082109 49 197 3.5 7.0 0.00 0.00 0.00 96 1003.9
20260507081734 49 213 2.6 7.8 0.00 0.00 0.00 96 1004.0
20260507081051 49 203 2.6 5.2 0.00 0.00 0.00 95 1004.1
20260507080534 49 205 3.5 5.2 0.00 0.00 0.00 95 1003.8
20260507080024 49 201 2.6 4.3 0.00 0.00 0.00 95 1004.0
20260507075520 49 199 3.5 7.0 0.00 0.00 0.00 95 1004.2
20260507075105 50 197 4.3 7.0 0.00 0.00 0.00 95 1004.1
20260507074601 50 210 4.3 7.0 0.00 0.00 0.00 95 1004.1
20260507074044 50 207 2.6 5.2 0.00 0.00 0.00 95 1003.8
20260507073532 50 202 2.6 5.2 0.00 0.00 0.00 95 1004.1
20260507073028 50 206 2.6 7.8 0.00 0.00 0.00 95 1004.2
20260507072614 50 203 3.5 6.1 0.00 0.00 0.00 95 1004.4
20260507072131 50 179 2.6 4.3 0.00 0.00 0.00 94 1004.1
20260507071604 50 213 1.7 4.3 0.00 0.00 0.00 94 1004.4
20260507071048 50 169 2.6 4.3 0.00 0.00 0.00 94 1004.7
20260507070540 51 163 1.7 6.1 0.00 0.00 0.00 94 1004.4
20260507070027 51 180 2.6 5.2 0.00 0.00 0.00 93 1004.3
20260507065556 51 184 2.6 5.2 0.00 0.00 0.00 91 1003.8
20260507065108 51 181 2.6 6.1 0.00 0.00 0.00 91 1003.4
20260507064604 51 195 1.7 5.2 0.00 0.00 0.00 90 1003.3
20260507064049 52 208 1.7 5.2 0.00 0.00 0.00 90 1002.9
20260507063540 52 178 1.7 4.3 0.00 0.00 0.00 90 1002.9
20260507063028 52 188 2.6 5.2 0.00 0.00 0.00 89 1003.0
20260507062518 52 167 1.7 4.3 0.00 0.00 0.00 90 1003.1
20260507062108 52 196 2.6 6.1 0.00 0.00 0.00 90 1003.2
20260507061656 52 166 2.6 4.3 0.00 0.00 0.00 90 1003.4
20260507061052 52 4 1.7 4.3 0.00 0.00 0.00 90 1003.4
20260507060535 52 199 0.9 4.3 0.00 0.00 0.00 90 1003.3
20260507060028 53 186 1.7 6.1 0.00 0.00 0.00 90 1003.4
20260507055615 53 199 3.5 7.8 0.00 0.00 0.00 90 1003.4
20260507055104 53 218 2.6 6.1 0.00 0.00 0.00 90 1003.6
20260507054617 53 182 3.5 6.1 0.00 0.00 0.00 91 1003.7
20260507054044 53 186 2.6 6.1 0.00 0.00 0.00 90 1003.5
20260507053540 53 213 1.7 6.1 0.00 0.00 0.00 90 1003.5
20260507053024 53 141 2.6 6.1 0.00 0.00 0.00 90 1003.6
20260507052614 54 323 2.6 6.1 0.00 0.00 0.00 90 1003.7
20260507052108 54 188 2.6 7.0 0.00 0.00 0.00 91 1003.8
20260507051556 54 181 1.7 6.1 0.00 0.00 0.00 91 1004.0
20260507051046 54 194 3.5 7.8 0.00 0.00 0.00 91 1004.1
20260507050534 54 211 2.6 6.1 0.00 0.00 0.00 91 1004.0
20260507050029 54 201 3.5 5.2 0.00 0.00 0.00 91 1003.9
20260507045544 54 207 3.5 7.0 0.00 0.00 0.00 93 1004.0
20260507045019 55 195 1.7 3.5 0.00 0.00 0.00 93 1004.0
20260507044612 55 194 1.7 2.6 0.00 0.00 0.00 93 1004.0
20260507044108 55 174 0.9 1.7 0.00 0.00 0.00 93 1003.9
20260507043553 55 189 1.7 2.6 0.00 0.00 0.00 93 1004.0
20260507043041 55 193 1.7 2.6 0.00 0.00 0.00 93 1004.0
20260507042529 55 191 0.9 3.5 0.00 0.00 0.00 92 1003.9
20260507042017 55 202 1.7 3.5 0.00 0.00 0.00 92 1003.8
20260507041612 55 190 0.9 3.5 0.00 0.00 0.00 92 1004.0
20260507041100 55 207 1.7 3.5 0.00 0.00 0.00 92 1004.0
20260507040548 55 210 2.6 5.2 0.00 0.00 0.00 91 1004.1
20260507040036 56 199 2.6 5.2 0.00 0.00 0.00 92 1004.1
20260507035524 56 200 2.6 5.2 0.00 0.00 0.00 94 1003.9
20260507035116 56 207 4.3 7.8 0.00 0.00 0.00 97 1004.1
20260507034604 57 206 2.6 6.1 0.00 0.00 0.00 97 1004.0
20260507034043 57 210 2.6 3.5 0.00 0.00 0.00 97 1003.9
20260507033540 57 192 2.6 4.3 0.00 0.00 0.00 97 1004.0
20260507033028 57 202 2.6 4.3 0.00 0.00 0.00 97 1003.7
20260507032620 57 159 1.7 3.5 0.00 0.00 0.00 96 1003.5
20260507032108 57 132 0.9 1.7 0.00 0.00 0.00 96 1003.5
20260507031615 56 160 0.9 1.7 0.00 0.00 0.00 96 1003.6
20260507031055 56 106 0.9 2.6 0.00 0.00 0.00 97 1003.6
20260507030540 56 106 0.9 2.6 0.00 0.00 0.00 97 1003.8
20260507030028 56 141 1.7 2.6 0.00 0.00 0.00 96 1003.8
20260507025520 56 100 0.9 2.6 0.00 0.00 0.00 96 1003.7
20260507025116 56 155 0.0 1.7 0.00 0.00 0.00 96 1003.7
20260507024604 56 134 0.9 4.3 0.00 0.00 0.00 97 1003.6
20260507024042 56 175 1.7 4.3 0.00 0.00 0.00 97 1003.5
20260507023537 56 149 1.7 3.5 0.00 0.00 0.00 97 1003.6
20260507023027 56 156 0.9 5.2 0.00 0.00 0.00 97 1003.7
20260507022538 56 115 2.6 7.8 0.00 0.00 0.00 97 1003.7
20260507022119 56 159 2.6 5.2 0.00 0.00 0.00 97 1003.8
20260507021605 56 125 1.7 5.2 0.00 0.00 0.00 97 1003.8
20260507021052 56 54 1.7 4.3 0.00 0.00 0.00 97 1003.8
20260507020541 56 136 1.7 5.2 0.00 0.00 0.00 97 1003.8
20260507020031 56 128 1.7 3.5 0.00 0.00 0.00 97 1004.0
20260507015519 56 116 1.7 4.3 0.00 0.00 0.00 97 1003.8
20260507015116 56 342 1.7 3.5 0.00 0.00 0.00 97 1003.8
20260507014625 56 134 0.9 3.5 0.00 0.00 0.00 96 1003.9
20260507014115 56 140 1.7 3.5 0.00 0.00 0.00 97 1003.9
20260507013548 56 130 1.7 4.3 0.00 0.00 0.00 97 1003.8
20260507013055 56 109 1.7 5.2 0.00 0.00 0.00 97 1003.5
20260507012526 56 92 0.9 6.1 0.00 0.00 0.00 97 1003.6
20260507012020 56 111 2.6 5.2 0.00 0.00 0.00 97 1003.6
20260507011612 56 143 2.6 4.3 0.00 0.00 0.00 97 1003.5
20260507011100 56 123 1.7 5.2 0.00 0.00 0.00 97 1003.8
20260507010558 56 65 0.9 5.2 0.00 0.00 0.00 97 1003.7
20260507010104 56 78 2.6 6.1 0.00 0.00 0.00 97 1003.8
20260507005534 56 103 2.6 5.2 0.00 0.00 0.00 97 1003.7
20260507005028 56 152 0.9 3.5 0.00 0.00 0.00 97 1003.7
20260507004521 57 102 1.7 5.2 0.00 0.00 0.00 97 1003.9
20260507004136 56 154 1.7 5.2 0.00 0.00 0.00 97 1004.0
20260507003609 56 130 2.6 7.0 0.00 0.00 0.00 97 1004.0
20260507003101 56 160 0.9 3.5 0.00 0.00 0.00 97 1004.1
20260507002617 56 82 1.7 6.1 0.00 0.00 0.00 97 1003.9
20260507002049 56 159 2.6 4.3 0.00 0.00 0.00 97 1003.8
20260507001537 56 122 0.9 3.5 0.00 0.00 0.00 97 1003.9
20260507001032 56 102 1.7 4.3 0.00 0.00 0.00 97 1003.8
20260507000518 56 127 1.7 5.2 0.00 0.00 0.00 97 1003.8
20260507000105 56 123 1.7 4.3 0.00 0.00 0.00 97 1003.7
20260506235604 56 140 1.7 4.3 0.00 0.00 0.00 97 1003.7
20260506235055 56 128 1.7 7.8 0.00 0.00 0.00 96 1003.6
20260506234650 56 86 1.7 4.3 0.00 0.00 0.00 96 1003.7
20260506234044 56 151 1.7 4.3 0.00 0.00 0.00 96 1003.7
20260506233531 56 93 0.9 5.2 0.00 0.00 0.00 96 1003.6
20260506233022 56 70 3.5 7.0 0.00 0.00 0.00 96 1003.5
20260506232516 56 95 2.6 10.4 0.00 0.00 0.00 96 1003.7
20260506232108 56 88 2.6 5.2 0.00 0.00 0.00 96 1003.5
20260506231556 56 124 2.6 5.2 0.00 0.00 0.00 96 1003.6
20260506231103 56 132 2.6 5.2 0.00 0.00 0.00 96 1003.6
20260506230534 56 105 1.7 4.3 0.00 0.00 0.00 96 1003.6
20260506230029 56 139 1.7 6.1 0.00 0.00 0.00 96 1003.5
20260506225522 56 134 2.6 5.2 0.00 0.00 0.00 96 1003.3
20260506225136 56 112 3.5 7.8 0.00 0.00 0.00 95 1003.3
20260506224608 56 61 2.6 7.0 0.00 0.00 0.00 95 1003.4
20260506224059 56 148 2.6 7.8 0.00 0.00 0.00 95 1003.3
20260506223548 56 70 1.7 5.2 0.00 0.00 0.00 95 1003.4
20260506223102 56 131 2.6 5.2 0.00 0.00 0.00 95 1003.5
20260506222540 56 57 2.6 8.7 0.00 0.00 0.00 95 1003.4
20260506222028 56 136 1.7 8.7 0.00 0.00 0.00 95 1003.2
20260506221620 57 136 2.6 5.2 0.00 0.00 0.00 95 1003.3
20260506221059 57 142 1.7 5.2 0.00 0.00 0.00 94 1003.3
20260506220554 57 140 1.7 4.3 0.00 0.00 0.00 94 1003.3
20260506220045 57 193 1.7 6.1 0.00 0.00 0.00 94 1003.2
20260506215525 57 142 2.6 6.1 0.00 0.00 0.00 94 1003.3
20260506215019 57 107 3.5 12.2 0.00 0.00 0.00 94 1003.3
20260506214612 57 144 3.5 12.2 0.00 0.00 0.00 94 1003.2
20260506214105 57 66 4.3 11.3 0.00 0.00 0.00 94 1003.3
20260506213553 57 110 2.6 7.8 0.00 0.00 0.00 94 1003.4
20260506213106 57 125 2.6 6.1 0.00 0.00 0.00 94 1003.5
20260506212540 57 134 4.3 9.6 0.00 0.00 0.00 94 1003.5
20260506212032 57 146 3.5 7.0 0.00 0.00 0.00 94 1003.6
20260506211526 57 76 2.6 9.6 0.00 0.00 0.00 94 1003.7
20260506211022 57 112 3.5 7.8 0.00 0.00 0.00 93 1003.8
20260506210516 57 45 3.5 9.6 0.00 0.00 0.00 93 1003.9
20260506210037 58 146 1.7 9.6 0.00 0.00 0.00 93 1003.9
20260506205601 58 118 1.7 7.0 0.00 0.00 0.00 92 1003.8
20260506205052 58 111 2.6 8.7 0.00 0.00 0.00 92 1003.8
20260506204600 58 80 2.6 5.2 0.00 0.00 0.00 93 1003.9
20260506204039 58 69 3.5 8.7 0.00 0.00 0.00 92 1003.9
20260506203524 58 128 2.6 6.1 0.00 0.00 0.00 92 1003.9
20260506203112 58 81 2.6 6.1 0.00 0.00 0.00 92 1003.9
20260506202605 58 110 2.6 6.1 0.00 0.00 0.00 92 1004.1
20260506202132 58 72 2.6 5.2 0.00 0.00 0.00 92 1004.0
20260506201608 58 177 1.7 7.8 0.00 0.00 0.00 92 1004.1
20260506201032 58 159 2.6 5.2 0.00 0.00 0.00 92 1004.2
20260506200521 58 111 2.6 7.8 0.00 0.00 0.00 92 1004.1
20260506200108 58 93 4.3 9.6 0.00 0.00 0.00 92 1004.2
20260506195604 58 105 1.7 5.2 0.00 0.00 0.00 92 1004.2
20260506195052 58 138 4.3 9.6 0.00 0.00 0.00 93 1004.3
20260506194540 58 89 2.6 7.0 0.00 0.00 0.00 92 1004.5
20260506194022 58 150 1.7 7.8 0.00 0.00 0.00 92 1004.5
20260506193620 58 187 2.6 8.7 0.00 0.00 0.00 93 1004.7
20260506193112 58 63 2.6 5.2 0.00 0.00 0.00 93 1004.5
20260506192600 58 77 3.5 7.0 0.00 0.00 0.00 93 1004.5
20260506192109 58 143 2.6 7.8 0.00 0.00 0.00 93 1004.6
20260506191543 58 136 1.7 6.1 0.00 0.00 0.00 93 1004.6
20260506191027 58 148 2.6 7.0 0.00 0.00 0.00 92 1004.6
20260506190519 57 56 3.5 9.6 0.00 0.00 0.00 92 1004.7
20260506190115 57 125 1.7 7.8 0.00 0.00 0.00 92 1004.7
20260506185613 58 115 3.5 5.2 0.00 0.00 0.00 91 1004.9
20260506185119 58 56 4.3 8.7 0.00 0.00 0.00 91 1004.8
20260506184548 58 63 3.5 7.0 0.00 0.00 0.00 90 1004.6
20260506184037 58 81 1.7 4.3 0.00 0.00 0.00 89 1004.6
20260506183553 58 68 2.6 6.1 0.00 0.00 0.00 88 1004.9
20260506183029 58 85 1.7 9.6 0.00 0.00 0.00 88 1004.9
20260506182521 58 80 5.2 9.6 0.00 0.00 0.00 88 1005.1
20260506182116 58 75 2.6 9.6 0.00 0.00 0.00 87 1005.4
20260506181611 59 121 2.6 8.7 0.00 0.00 0.00 86 1005.5
20260506181103 59 96 2.6 8.7 0.00 0.00 0.00 85 1005.8
20260506180558 60 236 2.6 7.8 0.00 0.00 0.00 83 1005.8
20260506180049 60 89 1.7 5.2 0.00 0.00 0.00 81 1005.7
20260506175623 60 116 2.6 10.4 0.00 0.00 0.00 80 1005.6
20260506175034 60 102 3.5 7.8 0.00 0.00 0.00 80 1005.8
20260506174533 61 114 3.5 7.8 0.00 0.00 0.00 79 1005.9
20260506174024 61 90 4.3 6.1 0.00 0.00 0.00 78 1005.8
20260506173615 61 30 2.6 8.7 0.00 0.00 0.00 78 1005.9
20260506173129 61 188 3.5 8.7 0.00 0.00 0.00 76 1006.0
20260506172556 62 51 4.3 7.8 0.00 0.00 0.00 76 1006.0
20260506172045 62 91 2.6 7.0 0.00 0.00 0.00 77 1006.1
20260506171552 62 233 3.5 9.6 0.00 0.00 0.00 76 1006.1
20260506171021 63 138 3.5 9.6 0.00 0.00 0.00 74 1006.1
20260506170516 64 112 3.5 9.6 0.00 0.00 0.00 73 1006.1
20260506170129 64 94 4.3 7.0 0.00 0.00 0.00 73 1006.2
20260506165604 64 130 4.3 9.6 0.00 0.00 0.00 73 1006.1
20260506165046 64 132 4.3 9.6 0.00 0.00 0.00 72 1006.1
20260506164540 64 115 5.2 13.0 0.00 0.00 0.00 71 1006.0
20260506164041 65 108 3.5 8.7 0.00 0.00 0.00 71 1006.0
20260506163524 65 143 2.6 8.7 0.00 0.00 0.00 71 1006.0
20260506163117 64 159 3.5 13.0 0.00 0.00 0.00 72 1006.1
20260506162605 65 57 6.1 13.0 0.00 0.00 0.00 70 1006.1
20260506162052 65 131 4.3 9.6 0.00 0.00 0.00 71 1006.4
20260506161541 65 126 5.2 13.0 0.00 0.00 0.00 71 1006.4
20260506161037 64 114 3.5 9.6 0.00 0.00 0.00 72 1006.4